Time,TemperatureF,DewpointF,PressureIn,WindDirection,WindDirectionDegrees,WindSpeedMPH,WindSpeedGustMPH,Humidity,HourlyPrecipIn,Conditions,Clouds,dailyrainin,SoftwareType,DateUTC
2013-03-30 08:10:00,54.0,29.6,30.08,SSE,168,0.0,1.0,39,0.00,,,0.00,Wunderground v.1.15,2013-03-30 15:10:00,
2013-03-30 08:15:00,54.1,29.7,30.08,SSE,168,0.0,1.0,39,0.00,,,0.00,Wunderground v.1.15,2013-03-30 15:15:00,
2013-03-30 08:25:00,54.4,28.6,30.08,SSE,155,1.0,2.0,37,0.00,,,0.00,Wunderground v.1.15,2013-03-30 15:25:00,
2013-03-30 08:30:00,54.8,29.0,30.08,NW,326,1.0,1.0,37,0.00,,,0.00,Wunderground v.1.15,2013-03-30 15:30:00,
2013-03-30 08:35:00,55.1,29.3,30.08,NW,326,0.0,1.0,37,0.00,,,0.00,Wunderground v.1.15,2013-03-30 15:35:00,
2013-03-30 08:40:00,55.3,30.1,30.08,NE,41,0.0,1.0,38,0.00,,,0.00,Wunderground v.1.15,2013-03-30 15:40:00,
2013-03-30 08:45:00,55.5,29.6,30.08,NE,56,1.0,1.0,37,0.00,,,0.00,Wunderground v.1.15,2013-03-30 15:45:00,
2013-03-30 08:55:00,56.2,28.2,30.08,NW,324,1.0,3.0,34,0.00,,,0.00,Wunderground v.1.15,2013-03-30 15:55:00,
2013-03-30 09:00:00,56.5,29.1,30.08,ENE,59,2.0,2.0,35,0.00,,,0.00,Wunderground v.1.15,2013-03-30 16:00:00,
2013-03-30 09:10:00,57.1,29.0,30.09,SSE,164,0.0,0.0,34,0.00,,,0.00,Wunderground v.1.15,2013-03-30 16:10:00,
2013-03-30 09:15:00,57.3,29.1,30.09,NNE,25,0.0,1.0,34,0.00,,,0.00,Wunderground v.1.15,2013-03-30 16:15:00,
2013-03-30 09:25:00,58.2,29.2,30.09,East,79,1.0,2.0,33,0.00,,,0.00,Wunderground v.1.15,2013-03-30 16:25:00,
2013-03-30 09:30:00,58.3,29.3,30.09,NNE,15,2.0,2.0,33,0.00,,,0.00,Wunderground v.1.15,2013-03-30 16:30:00,
2013-03-30 09:40:00,58.9,29.8,30.09,NE,46,1.0,1.0,33,0.00,,,0.00,Wunderground v.1.15,2013-03-30 16:40:00,
2013-03-30 09:45:00,59.1,30.0,30.09,NNE,14,2.0,2.0,33,0.00,,,0.00,Wunderground v.1.15,2013-03-30 16:45:00,
2013-03-30 09:55:00,59.4,29.5,30.09,NNE,27,2.0,2.0,32,0.00,,,0.00,Wunderground v.1.15,2013-03-30 16:55:00,
2013-03-30 10:00:00,59.9,29.9,30.09,NE,34,2.0,2.0,32,0.00,,,0.00,Wunderground v.1.15,2013-03-30 17:00:00,
2013-03-30 10:10:00,60.3,28.7,30.09,NNE,27,3.0,3.0,30,0.00,,,0.00,Wunderground v.1.15,2013-03-30 17:10:00,
2013-03-30 10:15:00,60.6,29.0,30.09,NE,40,3.0,3.0,30,0.00,,,0.00,Wunderground v.1.15,2013-03-30 17:15:00,
2013-03-30 10:25:00,61.1,29.4,30.09,North,354,2.0,3.0,30,0.00,,,0.00,Wunderground v.1.15,2013-03-30 17:25:00,
2013-03-30 10:30:00,61.3,29.6,30.09,NNE,30,3.0,3.0,30,0.00,,,0.00,Wunderground v.1.15,2013-03-30 17:30:00,
2013-03-30 10:40:00,61.9,29.3,30.09,NE,37,1.0,3.0,29,0.00,,,0.00,Wunderground v.1.15,2013-03-30 17:40:00,
2013-03-30 10:45:00,62.1,27.7,30.09,ENE,71,1.0,3.0,27,0.00,,,0.00,Wunderground v.1.15,2013-03-30 17:45:00,
2013-03-30 10:55:00,63.1,29.4,30.09,ENE,62,1.0,2.0,28,0.00,,,0.00,Wunderground v.1.15,2013-03-30 17:55:00,
2013-03-30 11:00:00,63.2,30.4,30.09,NE,44,2.0,2.0,29,0.00,,,0.00,Wunderground v.1.15,2013-03-30 18:00:00,
2013-03-30 11:10:00,63.9,29.2,30.09,North,4,2.0,2.0,27,0.00,,,0.00,Wunderground v.1.15,2013-03-30 18:10:00,
2013-03-30 11:15:00,64.8,29.1,30.09,NNE,13,1.0,2.0,26,0.00,,,0.00,Wunderground v.1.15,2013-03-30 18:15:00,
2013-03-30 11:25:00,66.0,30.1,30.08,ENE,62,2.0,2.0,26,0.00,,,0.00,Wunderground v.1.15,2013-03-30 18:25:00,
2013-03-30 11:30:00,66.6,29.6,30.08,ENE,75,2.0,2.0,25,0.00,,,0.00,Wunderground v.1.15,2013-03-30 18:30:00,
2013-03-30 11:40:00,67.6,30.5,30.08,ESE,117,2.0,2.0,25,0.00,,,0.00,Wunderground v.1.15,2013-03-30 18:40:00,
2013-03-30 11:45:00,67.4,30.3,30.08,SE,134,2.0,2.0,25,0.00,,,0.00,Wunderground v.1.15,2013-03-30 18:45:00,
2013-03-30 11:55:00,68.0,29.8,30.07,East,86,2.0,3.0,24,0.00,,,0.00,Wunderground v.1.15,2013-03-30 18:55:00,
2013-03-30 12:00:00,68.9,29.5,30.07,NW,305,2.0,3.0,23,0.00,,,0.00,Wunderground v.1.15,2013-03-30 19:00:00,
2013-03-30 12:10:00,70.0,29.4,30.07,NNE,22,2.0,2.0,22,0.00,,,0.00,Wunderground v.1.15,2013-03-30 19:10:00,
2013-03-30 12:15:00,69.7,30.2,30.06,SE,137,2.0,2.0,23,0.00,,,0.00,Wunderground v.1.15,2013-03-30 19:15:00,
2013-03-30 12:25:00,70.1,30.6,30.06,NNE,32,1.0,2.0,23,0.00,,,0.00,Wunderground v.1.15,2013-03-30 19:25:00,
2013-03-30 12:30:00,70.8,30.0,30.06,North,349,2.0,3.0,22,0.00,,,0.00,Wunderground v.1.15,2013-03-30 19:30:00,
2013-03-30 12:40:00,70.0,30.5,30.05,NNE,18,3.0,3.0,23,0.00,,,0.00,Wunderground v.1.15,2013-03-30 19:40:00,
2013-03-30 12:45:00,70.0,29.4,30.05,NW,326,2.0,3.0,22,0.00,,,0.00,Wunderground v.1.15,2013-03-30 19:45:00,
2013-03-30 12:55:00,69.9,29.3,30.04,NNE,27,2.0,4.0,22,0.00,,,0.00,Wunderground v.1.15,2013-03-30 19:55:00,
2013-03-30 13:00:00,70.2,30.6,30.04,NNE,19,2.0,5.0,23,0.00,,,0.00,Wunderground v.1.15,2013-03-30 20:00:00,
2013-03-30 13:10:00,70.1,29.5,30.04,NNE,22,2.0,2.0,22,0.00,,,0.00,Wunderground v.1.15,2013-03-30 20:10:00,
2013-03-30 13:15:00,70.0,29.4,30.03,NNE,19,1.0,3.0,22,0.00,,,0.00,Wunderground v.1.15,2013-03-30 20:15:00,
2013-03-30 13:25:00,70.0,30.5,30.03,North,354,3.0,4.0,23,0.00,,,0.00,Wunderground v.1.15,2013-03-30 20:25:00,
2013-03-30 13:30:00,70.2,30.6,30.03,NNW,346,3.0,4.0,23,0.00,,,0.00,Wunderground v.1.15,2013-03-30 20:30:00,
2013-03-30 13:40:00,70.7,30.0,30.03,NW,310,2.0,2.0,22,0.00,,,0.00,Wunderground v.1.15,2013-03-30 20:40:00,
2013-03-30 13:45:00,71.0,31.3,30.02,ENE,70,1.0,2.0,23,0.00,,,0.00,Wunderground v.1.15,2013-03-30 20:45:00,
2013-03-30 13:55:00,71.3,30.5,30.02,North,1,2.0,4.0,22,0.00,,,0.00,Wunderground v.1.15,2013-03-30 20:55:00,
2013-03-30 14:00:00,71.5,29.5,30.02,North,11,2.0,4.0,21,0.00,,,0.00,Wunderground v.1.15,2013-03-30 21:00:00,
2013-03-30 14:10:00,71.8,29.7,30.02,NNE,19,2.0,2.0,21,0.00,,,0.00,Wunderground v.1.15,2013-03-30 21:10:00,
2013-03-30 14:15:00,71.9,29.8,30.01,NE,45,1.0,2.0,21,0.00,,,0.00,Wunderground v.1.15,2013-03-30 21:15:00,
2013-03-30 14:25:00,72.2,30.1,30.01,NNW,347,1.0,2.0,21,0.00,,,0.00,Wunderground v.1.15,2013-03-30 21:25:00,
2013-03-30 14:30:00,72.4,30.2,30.01,NNW,342,2.0,2.0,21,0.00,,,0.00,Wunderground v.1.15,2013-03-30 21:30:00,
2013-03-30 14:40:00,72.4,30.2,30.01,NW,322,2.0,3.0,21,0.00,,,0.00,Wunderground v.1.15,2013-03-30 21:40:00,
2013-03-30 14:45:00,72.3,30.1,30.00,North,6,3.0,5.0,21,0.00,,,0.00,Wunderground v.1.15,2013-03-30 21:45:00,
2013-03-30 14:55:00,72.7,30.5,30.00,NW,316,3.0,3.0,21,0.00,,,0.00,Wunderground v.1.15,2013-03-30 21:55:00,
2013-03-30 15:00:00,72.9,29.4,30.00,WSW,237,1.0,1.0,20,0.00,,,0.00,Wunderground v.1.15,2013-03-30 22:00:00,
2013-03-30 15:10:00,74.0,30.4,30.00,NW,315,1.0,1.0,20,0.00,,,0.00,Wunderground v.1.15,2013-03-30 22:10:00,
2013-03-30 15:15:00,73.9,29.0,30.00,East,94,1.0,1.0,19,0.00,,,0.00,Wunderground v.1.15,2013-03-30 22:15:00,
2013-03-30 15:25:00,73.8,30.2,29.99,North,8,1.0,1.0,20,0.00,,,0.00,Wunderground v.1.15,2013-03-30 22:25:00,
2013-03-30 15:30:00,74.3,31.8,29.99,South,174,1.0,1.0,21,0.00,,,0.00,Wunderground v.1.15,2013-03-30 22:30:00,
2013-03-30 15:40:00,74.1,30.4,29.98,NNW,328,2.0,2.0,20,0.00,,,0.00,Wunderground v.1.15,2013-03-30 22:40:00,
2013-03-30 15:45:00,74.1,31.6,29.98,South,186,2.0,2.0,21,0.00,,,0.00,Wunderground v.1.15,2013-03-30 22:45:00,
2013-03-30 15:55:00,73.7,30.1,29.98,NNW,333,2.0,4.0,20,0.00,,,0.00,Wunderground v.1.15,2013-03-30 22:55:00,
2013-03-30 16:00:00,73.5,31.1,29.98,NE,37,3.0,3.0,21,0.00,,,0.00,Wunderground v.1.15,2013-03-30 23:00:00,
2013-03-30 16:10:00,73.4,31.1,29.98,SW,221,1.0,1.0,21,0.00,,,0.00,Wunderground v.1.15,2013-03-30 23:10:00,
2013-03-30 16:15:00,73.9,31.5,29.98,NW,309,3.0,4.0,21,0.00,,,0.00,Wunderground v.1.15,2013-03-30 23:15:00,
2013-03-30 16:25:00,75.9,31.9,29.97,WNW,293,4.0,8.0,20,0.00,,,0.00,Wunderground v.1.15,2013-03-30 23:25:00,
2013-03-30 16:30:00,75.5,31.6,29.97,WNW,285,2.0,2.0,20,0.00,,,0.00,Wunderground v.1.15,2013-03-30 23:30:00,
2013-03-30 16:40:00,74.9,31.1,29.97,WSW,250,3.0,8.0,20,0.00,,,0.00,Wunderground v.1.15,2013-03-30 23:40:00,
2013-03-30 16:45:00,74.6,32.1,29.97,SW,226,5.0,8.0,21,0.00,,,0.00,Wunderground v.1.15,2013-03-30 23:45:00,
2013-03-30 16:55:00,75.1,31.3,29.97,WNW,290,4.0,8.0,20,0.00,,,0.00,Wunderground v.1.15,2013-03-30 23:55:00,
2013-03-30 17:00:00,75.0,31.2,29.97,SSW,213,4.0,4.0,20,0.00,,,0.00,Wunderground v.1.15,2013-03-31 00:00:00,
2013-03-30 17:10:00,75.5,31.6,29.96,SW,231,4.0,5.0,20,0.00,,,0.00,Wunderground v.1.15,2013-03-31 00:10:00,
2013-03-30 17:15:00,75.0,31.2,29.96,West,266,4.0,5.0,20,0.00,,,0.00,Wunderground v.1.15,2013-03-31 00:15:00,
2013-03-30 19:45:00,64.3,30.5,29.97,WNW,290,4.0,4.0,28,0.00,,,0.00,Wunderground v.1.15,2013-03-31 02:45:00,
2013-03-30 19:55:00,63.8,30.9,29.97,WNW,302,3.0,3.0,29,0.00,,,0.00,Wunderground v.1.15,2013-03-31 02:55:00,
2013-03-30 20:00:00,63.2,30.4,29.97,WNW,289,3.0,4.0,29,0.00,,,0.00,Wunderground v.1.15,2013-03-31 03:00:00,
2013-03-30 20:10:00,64.1,30.3,29.98,WNW,303,4.0,4.0,28,0.00,,,0.00,Wunderground v.1.15,2013-03-31 03:10:00,
2013-03-30 20:15:00,65.7,30.8,29.98,West,274,4.0,4.0,27,0.00,,,0.00,Wunderground v.1.15,2013-03-31 03:15:00,
2013-03-30 20:25:00,66.4,30.4,29.98,WNW,291,4.0,5.0,26,0.00,,,0.00,Wunderground v.1.15,2013-03-31 03:25:00,
2013-03-30 20:30:00,66.2,31.2,29.98,WNW,301,4.0,4.0,27,0.00,,,0.00,Wunderground v.1.15,2013-03-31 03:30:00,
2013-03-30 20:40:00,64.7,30.8,29.98,WNW,299,3.0,3.0,28,0.00,,,0.00,Wunderground v.1.15,2013-03-31 03:40:00,
2013-03-30 20:45:00,65.4,30.5,29.98,WSW,253,4.0,4.0,27,0.00,,,0.00,Wunderground v.1.15,2013-03-31 03:45:00,